Wind_Speed
15 16 16 16 16 16 16 16 16 16 16 15 14 14 13 13 13 14 14 14 13 13 14 14 14 15 15 14 14 15 15 16 17 18 18 18 18 19 18 18 17 18 18
16 16 16 16 16 15 15 16 15 15 15 14 13 13 13 13 13 14 14 14 13 13 13 14 15 15 14 14 14 14 14 15 16 17 17 18 18 18 18 17 17 18 18
15 16 16 15 15 15 16 16 16 16 15 14 13 13 13 13 13 13 13 13 13 14 13 14 14 15 14 14 15 14 14 15 15 16 17 17 18 18 18 18 18 18 19
15 15 15 15 14 15 15 16 16 15 14 14 14 14 14 14 14 14 14 13 14 13 13 14 14 14 14 14 14 14 14 14 14 15 16 17 17 17 17 17 18 19 19
15 14 14 14 15 15 15 16 16 16 15 15 14 14 14 14 14 14 13 14 13 13 14 14 14 14 14 13 13 13 13 14 14 15 16 16 16 17 17 17 18 19 19
14 14 14 14 14 15 15 15 15 15 14 14 14 13 14 14 14 13 13 14 13 13 14 15 14 15 14 13 13 13 13 13 13 14 14 15 16 16 16 16 18 18 19
14 14 13 13 14 14 14 14 14 13 13 13 13 13 13 13 13 13 13 13 13 14 15 15 14 14 13 13 14 13 13 13 13 13 14 14 15 16 16 16 17 18 18
14 13 12 12 12 12 13 13 12 12 12 12 12 13 12 12 12 12 13 14 14 14 14 15 14 14 14 14 13 13 13 13 14 14 15 15 15 16 16 16 16 16 17
13 13 12 11 11 11 12 12 12 12 11 11 12 11 12 12 13 13 14 14 14 14 15 16 15 14 14 13 13 13 14 14 14 15 15 16 16 16 16 16 16 17 17
13 12 11 11 11 11 11 12 11 11 11 10 10 11 11 12 13 14 13 14 14 14 15 15 14 13 13 13 14 14 14 14 15 15 15 15 16 16 15 15 16 17 17
12 11 10 11 11 10 10 10 10 10 10 10 10 10 11 11 12 13 13 14 14 15 14 13 13 13 13 13 13 14 14 15 15 15 15 15 16 15 15 16 16 16 17
11 10 10 10 10 9 9 8 9 9 10 10 10 10 11 11 12 13 14 14 14 14 14 14 14 13 12 12 13 15 15 14 14 15 15 15 16 15 15 15 16 17 17
11 10 9 9 9 8 8 7 8 8 9 10 11 11 12 12 13 13 14 14 13 13 13 13 13 13 13 13 14 14 14 14 14 15 15 16 16 15 15 15 16 16 17
10 9 9 8 8 7 7 7 7 8 9 10 10 11 11 12 12 13 13 13 13 13 13 13 14 13 13 13 13 14 13 13 14 14 14 15 16 15 16 16 16 17 16
9 8 8 7 7 6 7 7 8 8 9 10 10 11 11 11 12 13 13 12 13 13 13 13 13 13 13 13 13 13 13 13 13 14 15 15 15 15 15 16 16 17 17
8 8 8 7 7 7 7 8 8 9 10 10 10 11 11 12 12 12 12 12 13 13 13 13 13 12 12 12 12 12 12 12 13 14 14 15 15 15 15 16 17 18 18
8 8 8 7 7 7 8 8 9 9 10 11 11 11 12 12 12 13 12 13 13 13 13 13 12 12 12 12 11 12 12 12 13 14 14 14 14 15 16 17 18 18 18
8 8 8 8 8 8 9 9 9 10 11 11 11 11 12 12 12 12 12 13 13 12 13 13 13 12 12 12 12 12 13 13 14 14 14 14 15 16 17 17 17 17 18
9 9 9 9 9 9 10 10 10 10 11 11 11 11 11 11 12 12 12 12 13 13 13 13 12 12 12 12 13 13 14 14 14 14 15 15 15 15 16 16 16 17 18
9 10 9 9 10 10 10 10 10 10 11 11 11 11 11 11 12 12 12 12 12 13 13 12 11 11 12 12 13 13 14 14 14 14 14 15 16 16 16 17 17 17 18
11 11 11 11 11 10 11 11 11 11 11 11 11 11 11 12 12 12 12 12 12 12 12 11 11 11 12 13 13 13 14 14 14 14 15 15 16 16 16 17 17 18 18
12 12 11 11 11 11 11 12 12 11 11 11 12 12 12 12 12 12 12 12 13 13 13 13 13 13 13 13 13 13 14 15 15 15 15 15 16 16 16 16 17 18 18
13 13 12 12 12 12 12 12 12 12 11 12 12 12 12 12 12 12 13 14 14 14 14 14 14 14 13 13 13 13 14 14 14 14 15 15 15 15 16 16 16 17 18
14 14 14 13 13 13 12 13 13 12 12 12 12 12 12 12 13 13 14 14 14 14 14 14 14 13 12 12 13 14 14 14 14 14 15 15 15 15 16 16 17 17 17
16 15 15 15 15 14 14 13 13 12 12 12 12 12 12 13 13 13 13 14 13 13 14 14 14 13 13 12 13 13 13 14 14 14 14 14 14 14 15 15 16 16 17
17 17 17 16 16 15 14 13 13 13 12 12 12 12 13 13 13 13 13 13 13 13 13 14 14 13 13 13 13 13 13 14 14 15 14 14 14 14 15 15 15 16 17
Wind_Direction
280 283 281 281 280 282 281 279 279 281 284 284 286 288 292 294 294 297 299 300 296 291 291 291 291 289 286 281 278 276 274 271 270 268 268 267 267 266 267 267 265 265 267
283 280 280 281 280 283 282 283 282 286 283 279 283 289 295 298 299 299 300 301 296 293 294 294 292 290 286 281 278 277 273 272 271 269 267 268 267 267 266 266 267 268 268
286 281 279 279 279 281 283 282 279 286 284 282 288 295 296 296 299 298 298 297 296 298 297 295 293 289 286 281 277 279 279 277 274 272 271 272 272 269 270 270 271 272 270
284 284 282 279 278 281 282 283 282 284 283 283 287 291 294 296 297 295 297 299 295 296 298 298 296 291 287 282 279 279 278 278 277 275 275 276 274 271 271 270 272 274 273
284 286 285 282 279 279 283 285 285 287 287 287 288 290 292 294 294 293 297 301 299 297 299 299 298 293 288 282 280 280 278 279 280 280 279 278 277 277 274 271 271 275 275
286 286 286 286 282 280 281 282 284 285 288 287 285 286 289 290 292 294 296 300 299 299 300 303 301 296 287 281 278 279 278 277 278 280 281 279 279 277 277 274 272 272 274
290 287 286 287 285 281 280 279 281 281 285 287 286 287 288 289 291 293 296 300 300 300 301 302 299 293 287 280 277 275 274 276 280 284 284 283 281 280 280 279 277 275 275
292 291 288 285 284 281 279 279 281 283 286 290 289 287 287 287 290 295 297 300 302 303 303 303 298 291 287 281 278 276 275 278 282 285 286 286 285 283 284 283 280 279 278
292 290 290 290 290 285 282 281 280 281 283 286 285 286 286 287 292 297 299 301 302 302 303 302 297 290 287 282 280 279 280 280 281 283 283 284 286 286 286 285 282 280 278
294 292 289 290 295 295 288 282 282 285 284 284 283 286 288 293 295 300 301 303 303 304 302 299 296 292 289 286 284 282 282 281 281 283 284 284 285 287 286 285 286 283 281
302 299 293 294 295 299 291 281 284 287 288 290 291 288 292 297 301 303 304 305 304 303 302 296 295 294 291 286 284 283 282 282 283 284 284 287 286 287 288 287 287 287 285
297 297 297 301 302 302 300 296 288 288 290 294 299 298 297 301 306 307 307 308 307 306 302 299 299 297 291 286 284 286 284 284 285 287 288 288 288 291 292 291 291 291 289
295 297 299 302 307 309 311 307 299 296 297 300 301 302 302 303 307 310 311 311 310 308 303 302 301 298 293 288 287 289 288 286 286 287 288 289 292 294 293 293 293 294 292
295 295 297 301 302 305 311 311 306 306 307 307 305 306 307 307 309 310 309 310 311 309 305 303 302 301 298 293 291 292 290 288 288 288 289 291 293 293 294 295 296 295 292
294 298 297 299 300 303 306 306 306 308 309 309 309 307 306 306 309 308 307 310 311 309 306 305 306 305 303 299 295 294 292 290 290 289 291 292 292 293 295 297 298 297 297
291 289 287 290 293 298 300 304 304 304 306 308 307 308 307 308 310 308 308 310 312 311 309 308 308 308 305 303 300 299 299 296 293 292 291 291 292 293 297 299 299 298 297
286 280 283 287 291 297 300 302 302 304 307 308 308 308 307 307 307 306 306 308 309 309 307 308 309 308 306 304 304 304 303 300 298 296 294 292 293 295 297 298 297 298 299
283 281 282 287 291 294 296 298 302 305 308 311 311 310 307 306 305 306 308 313 314 310 309 309 309 308 307 306 305 306 307 305 304 301 300 298 297 297 298 299 299 301 301
279 282 284 285 288 289 291 296 302 305 307 309 311 310 309 310 310 310 310 313 315 312 307 307 307 307 305 305 304 304 307 308 307 305 303 300 299 299 299 300 301 303 303
279 280 283 285 287 289 293 297 301 306 308 309 310 311 310 310 310 310 311 311 313 311 308 306 306 306 306 306 307 308 308 307 307 307 307 307 305 302 300 301 302 304 304
274 277 279 281 282 286 291 295 299 304 307 310 312 310 309 310 310 308 310 311 311 312 310 308 308 308 307 306 306 309 310 310 307 306 307 308 309 307 304 302 302 304 306
273 276 279 282 282 283 288 295 299 301 304 306 309 308 309 312 311 310 310 311 312 313 313 310 308 309 307 305 306 309 310 309 307 307 308 308 310 311 308 304 303 304 307
271 273 278 281 284 283 285 292 297 298 299 303 306 307 309 311 312 311 311 311 310 311 312 310 307 305 306 307 308 310 310 309 310 308 307 308 311 313 313 310 306 304 308
271 273 277 278 281 282 284 290 294 296 298 301 304 306 307 309 311 312 313 314 313 312 313 313 311 306 306 310 311 313 312 311 313 314 312 310 310 314 314 313 312 310 311
268 270 273 274 275 278 281 287 291 295 297 298 301 304 307 308 309 311 312 314 315 315 313 314 315 313 310 310 310 310 311 313 315 316 316 312 311 313 314 316 318 316 316
267 269 269 270 271 275 278 281 286 290 294 295 296 299 304 307 308 309 312 314 314 313 314 316 315 313 311 310 311 311 314 315 317 316 316 316 315 314 315 318 318 316 316
Height
5830 5829 5828 5828 5828 5828 5828 5827 5827 5827 5827 5827 5827 5827 5826 5825 5825 5824 5824 5823 5822 5821 5821 5821 5820 5820 5820 5819 5819 5819 5819 5819 5819 5820 5820 5821 5821 5822 5822 5823 5823 5824 5825
5827 5826 5825 5825 5825 5825 5825 5824 5824 5823 5823 5823 5823 5823 5823 5822 5822 5821 5821 5820 5819 5818 5818 5817 5817 5816 5816 5816 5815 5815 5815 5816 5816 5816 5816 5817 5818 5818 5818 5819 5819 5819 5820
5824 5823 5822 5822 5822 5822 5822 5821 5820 5821 5820 5820 5819 5820 5820 5820 5820 5819 5818 5817 5816 5816 5815 5814 5814 5813 5812 5812 5812 5811 5811 5811 5812 5812 5812 5812 5813 5814 5814 5814 5815 5815 5815
5821 5820 5819 5819 5819 5819 5819 5818 5818 5818 5817 5817 5817 5817 5817 5817 5817 5816 5815 5814 5813 5813 5812 5811 5810 5809 5809 5808 5808 5808 5808 5808 5808 5808 5808 5809 5809 5809 5810 5810 5810 5810 5810
5817 5817 5816 5816 5816 5816 5815 5815 5815 5815 5815 5815 5814 5815 5815 5814 5814 5813 5812 5811 5811 5810 5809 5807 5806 5805 5805 5804 5804 5804 5804 5804 5804 5804 5804 5804 5804 5804 5805 5805 5805 5805 5805
5814 5814 5813 5813 5813 5812 5812 5812 5812 5812 5812 5812 5812 5812 5812 5811 5811 5810 5809 5808 5807 5806 5805 5804 5803 5802 5801 5801 5801 5801 5801 5801 5801 5801 5800 5801 5800 5800 5800 5800 5800 5801 5801
5811 5811 5811 5810 5810 5809 5809 5809 5809 5809 5809 5808 5809 5809 5809 5808 5808 5807 5806 5805 5804 5803 5802 5800 5799 5799 5798 5797 5797 5797 5797 5797 5797 5796 5796 5796 5796 5796 5795 5795 5795 5795 5795
5809 5808 5808 5808 5807 5807 5807 5806 5806 5806 5806 5806 5806 5806 5806 5805 5805 5804 5803 5802 5801 5800 5799 5797 5796 5795 5794 5794 5793 5793 5793 5793 5793 5792 5792 5792 5791 5791 5790 5790 5790 5790 5790
5807 5806 5806 5805 5805 5804 5804 5804 5804 5804 5804 5804 5803 5803 5803 5802 5802 5801 5800 5799 5798 5796 5795 5793 5792 5791 5791 5790 5789 5789 5789 5789 5789 5788 5788 5787 5787 5786 5786 5785 5785 5785 5785
5805 5805 5804 5803 5803 5802 5801 5801 5801 5801 5801 5801 5801 5801 5800 5800 5799 5798 5797 5796 5794 5793 5791 5790 5788 5787 5787 5786 5786 5785 5785 5785 5785 5784 5783 5783 5782 5782 5781 5781 5780 5779 5779
5803 5803 5802 5801 5801 5800 5799 5799 5799 5799 5799 5799 5798 5797 5797 5797 5796 5795 5794 5793 5791 5789 5788 5786 5785 5784 5783 5782 5782 5781 5781 5781 5780 5780 5779 5779 5778 5777 5777 5776 5775 5774 5774
5802 5801 5800 5800 5799 5798 5797 5797 5797 5797 5797 5796 5796 5795 5795 5794 5793 5792 5791 5789 5788 5786 5785 5783 5782 5781 5780 5779 5778 5778 5777 5777 5776 5775 5775 5774 5773 5773 5772 5771 5770 5769 5769
5800 5800 5799 5798 5797 5797 5796 5796 5796 5795 5795 5795 5794 5794 5793 5792 5791 5789 5788 5786 5785 5783 5782 5780 5779 5778 5777 5776 5775 5774 5773 5772 5772 5771 5771 5770 5769 5768 5768 5766 5766 5765 5764
5799 5798 5797 5796 5796 5796 5795 5795 5795 5795 5794 5793 5793 5791 5790 5789 5788 5787 5785 5784 5782 5780 5779 5777 5776 5775 5773 5772 5771 5770 5769 5769 5768 5767 5766 5766 5765 5764 5763 5762 5761 5760 5759
5797 5797 5796 5796 5795 5795 5795 5794 5794 5793 5793 5792 5791 5790 5788 5787 5786 5784 5783 5781 5780 5778 5776 5775 5773 5772 5770 5769 5768 5767 5766 5765 5764 5763 5762 5762 5761 5760 5759 5758 5757 5755 5754
5796 5795 5795 5795 5794 5794 5794 5793 5793 5792 5791 5790 5789 5788 5786 5785 5783 5782 5780 5779 5777 5775 5774 5772 5771 5769 5768 5766 5765 5763 5762 5761 5760 5759 5758 5758 5757 5756 5755 5753 5752 5751 5749
5794 5794 5794 5793 5793 5793 5792 5792 5791 5790 5789 5788 5787 5785 5784 5782 5781 5779 5778 5776 5774 5772 5771 5769 5768 5766 5765 5764 5762 5761 5759 5758 5757 5756 5755 5754 5753 5752 5750 5749 5748 5746 5744
5793 5792 5792 5792 5792 5791 5791 5790 5789 5788 5787 5785 5784 5783 5781 5780 5778 5777 5775 5773 5771 5770 5768 5766 5765 5763 5762 5761 5759 5758 5756 5755 5754 5752 5751 5750 5748 5747 5746 5745 5743 5741 5740
5791 5791 5791 5790 5790 5789 5789 5788 5787 5786 5784 5783 5782 5780 5779 5777 5776 5774 5772 5771 5769 5767 5765 5764 5762 5761 5759 5758 5756 5755 5753 5752 5750 5749 5747 5746 5745 5743 5741 5740 5738 5737 5735
5789 5789 5788 5788 5787 5787 5786 5785 5784 5783 5782 5780 5779 5777 5776 5774 5773 5771 5770 5768 5766 5764 5763 5761 5759 5758 5756 5755 5753 5751 5750 5749 5747 5745 5744 5742 5740 5739 5737 5735 5733 5732 5730
5786 5786 5786 5786 5785 5785 5784 5783 5782 5781 5779 5778 5776 5775 5773 5772 5770 5768 5767 5765 5763 5762 5760 5758 5756 5755 5753 5752 5750 5748 5746 5745 5743 5742 5740 5738 5736 5734 5732 5730 5729 5727 5725
5783 5783 5783 5783 5782 5782 5781 5780 5779 5778 5776 5775 5774 5772 5771 5769 5767 5766 5764 5762 5761 5759 5757 5755 5753 5752 5750 5748 5746 5745 5743 5741 5739 5738 5736 5734 5732 5730 5728 5726 5724 5722 5720
5779 5780 5780 5779 5779 5779 5778 5777 5776 5775 5773 5772 5771 5769 5768 5766 5765 5763 5761 5759 5758 5755 5753 5751 5750 5748 5746 5744 5743 5741 5740 5738 5736 5734 5732 5730 5728 5726 5724 5722 5720 5718 5716
5776 5776 5776 5776 5776 5775 5775 5774 5773 5771 5770 5769 5768 5766 5765 5763 5762 5760 5758 5756 5754 5752 5750 5748 5746 5744 5742 5741 5739 5738 5736 5734 5732 5730 5729 5727 5725 5722 5720 5718 5716 5714 5712
5772 5772 5772 5772 5772 5771 5771 5770 5769 5768 5767 5766 5764 5763 5762 5760 5758 5757 5755 5753 5751 5749 5746 5744 5742 5741 5739 5738 5736 5734 5733 5731 5729 5727 5725 5723 5721 5719 5717 5715 5712 5710 5708
5767 5767 5767 5767 5767 5767 5767 5766 5765 5764 5763 5762 5761 5760 5758 5757 5755 5754 5752 5749 5747 5746 5743 5741 5739 5737 5736 5734 5732 5731 5729 5727 5726 5724 5722 5720 5718 5716 5714 5712 5710 5707 5705